Location: *
(32.8667°N, 13.1833°E)
Time: 06:44:55
(UTC+00:00)

Thor Agena Rocket - Pass Details

Date: 18 July 2019
Orbit: 759 x 808 km, 99.1° (Epoch: 21 August)

Event Time Altitude Azimuth Distance (km) Brightness Sun altitude
Rises 19:51:49 0° 23° (NNE) 3,222 7.0 -17.8°
Reaches altitude 10° 19:54:17 10° 32° (NNE) 2,293 6.1 -18.2°
Maximum altitude 19:58:55 36° 99° (E) 1,182 4.0 -18.9°
Enters shadow 19:59:31 35° 115° (ESE) 1,208 4.0 -19.0°
